Location: Aiyekoto
(8.4333°N, 4.3667°E)
Time: 22:33:57
(UTC+00:00)

Hubble Space Telescope - Visible Passes

Search period start: 10 August 2020 00:00
Search period end: 20 August 2020 00:00
Orbit: 536 x 540 km, 28.5° (Epoch: 10 August)

Date Brightness Start Highest point End Pass type
(mag) Time Alt. Az. Time Alt. Az. Time Alt. Az.
18 Aug 3.6 04:32:12 10° N 04:33:31 11° NNE 04:34:49 10° NE visible
18 Aug 3.5 19:49:27 10° SW 19:49:35 11° SW 19:49:35 11° SW visible
19 Aug 3.5 04:20:42 10° NNW 04:22:56 14° NNE 04:25:10 10° NE visible
19 Aug 2.5 19:38:31 10° SW 19:40:20 24° SW 19:40:20 24° SW visible
